Time,TemperatureF,DewpointF,PressureIn,WindDirection,WindDirectionDegrees,WindSpeedMPH,WindSpeedGustMPH,Humidity,HourlyPrecipIn,Conditions,Clouds,dailyrainin,SoftwareType,DateUTC
2013-02-21 00:00:00,8.0,6.0,-100.00,North,349,7.0,11.0,92,-99.99,,,-99.99,,2013-02-21 07:00:00,
2013-02-21 00:42:00,8.0,6.0,-100.00,North,349,7.0,11.0,92,-99.99,,,-99.99,,2013-02-21 07:42:00,
2013-02-21 00:52:00,8.0,6.0,-100.00,North,349,7.0,11.0,92,-99.99,,,-99.99,,2013-02-21 07:52:00,
2013-02-21 01:00:00,8.0,6.0,-100.00,North,9,6.0,10.0,92,-99.99,,,-99.99,,2013-02-21 08:00:00,
2013-02-21 01:42:00,8.0,6.0,-100.00,North,9,6.0,10.0,92,-99.99,,,-99.99,,2013-02-21 08:42:00,
2013-02-21 01:52:00,8.0,6.0,-100.00,North,9,6.0,10.0,92,-99.99,,,-99.99,,2013-02-21 08:52:00,
2013-02-21 02:00:00,7.0,6.0,-100.00,North,352,7.0,10.0,92,-99.99,,,-99.99,,2013-02-21 09:00:00,
2013-02-21 02:42:00,7.0,6.0,-100.00,North,352,7.0,10.0,92,-99.99,,,-99.99,,2013-02-21 09:42:00,
2013-02-21 02:52:00,7.0,6.0,-100.00,North,352,7.0,10.0,92,-99.99,,,-99.99,,2013-02-21 09:52:00,
2013-02-21 03:00:00,8.0,6.0,-100.00,NNW,342,11.0,18.0,92,-99.99,,,-99.99,,2013-02-21 10:00:00,
2013-02-21 03:41:00,8.0,6.0,-100.00,NNW,342,11.0,18.0,92,-99.99,,,-99.99,,2013-02-21 10:41:00,
2013-02-21 03:51:00,8.0,6.0,-100.00,NNW,342,11.0,18.0,92,-99.99,,,-99.99,,2013-02-21 10:51:00,
2013-02-21 04:00:00,7.0,6.0,-100.00,NNW,340,20.0,27.0,92,-99.99,,,-99.99,,2013-02-21 11:00:00,
2013-02-21 04:41:00,7.0,6.0,-100.00,NNW,340,20.0,27.0,92,-99.99,,,-99.99,,2013-02-21 11:41:00,
2013-02-21 04:51:00,7.0,6.0,-100.00,NNW,340,20.0,27.0,92,-99.99,,,-99.99,,2013-02-21 11:51:00,
2013-02-21 05:00:00,7.0,5.0,-100.00,NNW,337,24.0,31.0,91,-99.99,,,-99.99,,2013-02-21 12:00:00,
2013-02-21 05:43:00,7.0,5.0,-100.00,NNW,337,24.0,31.0,91,-99.99,,,-99.99,,2013-02-21 12:43:00,
2013-02-21 05:52:00,7.0,5.0,-100.00,NNW,337,24.0,31.0,91,-99.99,,,-99.99,,2013-02-21 12:52:00,
2013-02-21 06:00:00,7.0,5.0,-100.00,NNW,337,22.0,27.0,91,-99.99,,,-99.99,,2013-02-21 13:00:00,
2013-02-21 06:42:00,7.0,5.0,-100.00,NNW,337,22.0,27.0,91,-99.99,,,-99.99,,2013-02-21 13:42:00,
2013-02-21 06:52:00,7.0,5.0,-100.00,NNW,337,22.0,27.0,91,-99.99,,,-99.99,,2013-02-21 13:52:00,
2013-02-21 07:00:00,7.0,5.0,-100.00,NNW,338,22.0,28.0,91,-99.99,,,-99.99,,2013-02-21 14:00:00,
2013-02-21 07:42:00,7.0,5.0,-100.00,NNW,338,22.0,28.0,91,-99.99,,,-99.99,,2013-02-21 14:42:00,
2013-02-21 07:52:00,7.0,5.0,-100.00,NNW,338,22.0,28.0,91,-99.99,,,-99.99,,2013-02-21 14:52:00,
2013-02-21 08:00:00,7.0,5.0,-100.00,NNW,338,20.0,29.0,91,-99.99,,,-99.99,,2013-02-21 15:00:00,
2013-02-21 08:42:00,7.0,5.0,-100.00,NNW,338,20.0,29.0,91,-99.99,,,-99.99,,2013-02-21 15:42:00,
2013-02-21 08:52:00,7.0,5.0,-100.00,NNW,338,20.0,29.0,91,-99.99,,,-99.99,,2013-02-21 15:52:00,
2013-02-21 09:00:00,7.0,5.0,-100.00,NNW,338,26.0,35.0,91,-99.99,,,-99.99,,2013-02-21 16:00:00,
2013-02-21 09:42:00,7.0,5.0,-100.00,NNW,338,26.0,35.0,91,-99.99,,,-99.99,,2013-02-21 16:42:00,
2013-02-21 09:52:00,7.0,5.0,-100.00,NNW,338,26.0,35.0,91,-99.99,,,-99.99,,2013-02-21 16:52:00,
2013-02-21 10:00:00,8.0,7.0,-100.00,NNW,340,24.0,31.0,92,-99.99,,,-99.99,,2013-02-21 17:00:00,
2013-02-21 10:42:00,8.0,7.0,-100.00,NNW,340,24.0,31.0,92,-99.99,,,-99.99,,2013-02-21 17:42:00,
2013-02-21 10:52:00,8.0,7.0,-100.00,NNW,340,24.0,31.0,92,-99.99,,,-99.99,,2013-02-21 17:52:00,
2013-02-21 11:00:00,9.0,8.0,-100.00,NNW,339,21.0,26.0,92,-99.99,,,-99.99,,2013-02-21 18:00:00,
2013-02-21 11:42:00,9.0,8.0,-100.00,NNW,339,21.0,26.0,92,-99.99,,,-99.99,,2013-02-21 18:42:00,
2013-02-21 11:52:00,9.0,8.0,-100.00,NNW,339,21.0,26.0,92,-99.99,,,-99.99,,2013-02-21 18:52:00,
2013-02-21 12:00:00,11.0,9.0,-100.00,NNW,341,19.0,28.0,93,-99.99,,,-99.99,,2013-02-21 19:00:00,
2013-02-21 12:42:00,11.0,9.0,-100.00,NNW,341,19.0,28.0,93,-99.99,,,-99.99,,2013-02-21 19:42:00,
2013-02-21 12:52:00,11.0,9.0,-100.00,NNW,341,19.0,28.0,93,-99.99,,,-99.99,,2013-02-21 19:52:00,
2013-02-21 13:00:00,11.0,9.0,-100.00,NNW,342,17.0,25.0,93,-99.99,,,-99.99,,2013-02-21 20:00:00,
2013-02-21 13:42:00,11.0,9.0,-100.00,NNW,342,17.0,25.0,93,-99.99,,,-99.99,,2013-02-21 20:42:00,
2013-02-21 13:52:00,11.0,9.0,-100.00,NNW,342,17.0,25.0,93,-99.99,,,-99.99,,2013-02-21 20:52:00,
2013-02-21 14:00:00,12.0,10.0,-100.00,NNW,341,17.0,25.0,93,-99.99,,,-99.99,,2013-02-21 21:00:00,
2013-02-21 14:42:00,12.0,10.0,-100.00,NNW,341,17.0,25.0,93,-99.99,,,-99.99,,2013-02-21 21:42:00,
2013-02-21 14:52:00,12.0,10.0,-100.00,NNW,341,17.0,25.0,93,-99.99,,,-99.99,,2013-02-21 21:52:00,
2013-02-21 15:00:00,11.0,10.0,-100.00,NNW,339,19.0,28.0,93,-99.99,,,-99.99,,2013-02-21 22:00:00,
2013-02-21 15:42:00,11.0,10.0,-100.00,NNW,339,19.0,28.0,93,-99.99,,,-99.99,,2013-02-21 22:42:00,
2013-02-21 15:52:00,11.0,10.0,-100.00,NNW,339,19.0,28.0,93,-99.99,,,-99.99,,2013-02-21 22:52:00,
2013-02-21 16:00:00,11.0,9.0,-100.00,NNW,338,19.0,29.0,93,-99.99,,,-99.99,,2013-02-21 23:00:00,
2013-02-21 16:42:00,11.0,9.0,-100.00,NNW,338,19.0,29.0,93,-99.99,,,-99.99,,2013-02-21 23:42:00,
2013-02-21 16:52:00,11.0,9.0,-100.00,NNW,338,19.0,29.0,93,-99.99,,,-99.99,,2013-02-21 23:52:00,
2013-02-21 17:00:00,13.0,11.0,-100.00,NNW,338,13.0,22.0,93,-99.99,,,-99.99,,2013-02-22 00:00:00,
2013-02-21 17:42:00,13.0,11.0,-100.00,NNW,338,13.0,22.0,93,-99.99,,,-99.99,,2013-02-22 00:42:00,
2013-02-21 17:52:00,13.0,11.0,-100.00,NNW,338,13.0,22.0,93,-99.99,,,-99.99,,2013-02-22 00:52:00,
2013-02-21 18:00:00,9.0,8.0,-100.00,North,350,9.0,13.0,93,-99.99,,,-99.99,,2013-02-22 01:00:00,
2013-02-21 18:42:00,9.0,8.0,-100.00,North,350,9.0,13.0,93,-99.99,,,-99.99,,2013-02-22 01:42:00,
2013-02-21 18:52:00,9.0,8.0,-100.00,North,350,9.0,13.0,93,-99.99,,,-99.99,,2013-02-22 01:52:00,
2013-02-21 19:00:00,7.0,6.0,-100.00,North,356,6.0,9.0,92,-99.99,,,-99.99,,2013-02-22 02:00:00,
2013-02-21 19:42:00,7.0,6.0,-100.00,North,356,6.0,9.0,92,-99.99,,,-99.99,,2013-02-22 02:42:00,
2013-02-21 19:52:00,7.0,6.0,-100.00,North,356,6.0,9.0,92,-99.99,,,-99.99,,2013-02-22 02:52:00,
2013-02-21 20:00:00,7.0,5.0,-100.00,North,353,8.0,12.0,91,-99.99,,,-99.99,,2013-02-22 03:00:00,
2013-02-21 20:42:00,7.0,5.0,-100.00,North,353,8.0,12.0,91,-99.99,,,-99.99,,2013-02-22 03:42:00,
2013-02-21 20:52:00,7.0,5.0,-100.00,North,353,8.0,12.0,91,-99.99,,,-99.99,,2013-02-22 03:52:00,
2013-02-21 21:00:00,5.0,3.0,-100.00,NNE,15,7.0,11.0,90,-99.99,,,-99.99,,2013-02-22 04:00:00,
2013-02-21 21:42:00,5.0,3.0,-100.00,NNE,15,7.0,11.0,90,-99.99,,,-99.99,,2013-02-22 04:42:00,
2013-02-21 21:52:00,5.0,3.0,-100.00,NNE,15,7.0,11.0,90,-99.99,,,-99.99,,2013-02-22 04:52:00,
2013-02-21 22:00:00,5.0,3.0,-100.00,NNE,33,3.0,7.0,90,-99.99,,,-99.99,,2013-02-22 05:00:00,
2013-02-21 22:42:00,5.0,3.0,-100.00,NNE,33,3.0,7.0,90,-99.99,,,-99.99,,2013-02-22 05:42:00,
2013-02-21 22:52:00,5.0,3.0,-100.00,NNE,33,3.0,7.0,90,-99.99,,,-99.99,,2013-02-22 05:52:00,
2013-02-21 23:00:00,4.0,2.0,-100.00,NE,44,2.0,5.0,90,-99.99,,,-99.99,,2013-02-22 06:00:00,
2013-02-21 23:42:00,4.0,2.0,-100.00,NE,44,2.0,5.0,90,-99.99,,,-99.99,,2013-02-22 06:42:00,
2013-02-21 23:52:00,4.0,2.0,-100.00,NE,44,2.0,5.0,90,-99.99,,,-99.99,,2013-02-22 06:52:00,